Regional Weather Roundup
Issued by NWS Green Bay, WI

Home | Current Version | Previous Version | Text Only | Print | Product List | Glossary On
Versions: 1 2 3 4 5 6 7 8 9 10 11 12 13 14 15 16 17 18 19 20 21 22 23 24 25 26 27 28 29 30 31 32 33 34 35 36 37 38 39 40 41 42 43 44 45 46 47 48 49 50
000
ASUS43 KGRB 262210
RWRGRB

NORTH-CENTRAL AND NORTHEAST WISCONSIN REGIONAL WEATHER ROUNDUP
NATIONAL WEATHER SERVICE GREEN BAY WI
400 PM CST MON JAN 26 2015

WIZ005-009-010>012-018-019-262300-
NORTH CENTRAL WISCONSIN

CITY           SKY/WX    TMP DP  RH WIND       PRES   REMARKS
IRONWOOD       CLOUDY    21  18  86 S6        29.72R
MANITOWISH WTR CLOUDY    19  16  87 S5        29.74R
ARBOR VITAE    CLOUDY    22  18  84 S5        29.74R
EAGLE RIVER    CLOUDY    21  15  80 S7        29.74R
LAND O LAKES   CLOUDY    21  17  83 S6        29.75R
RHINELANDER    CLOUDY    19  15  84 S7        29.75R WCI  10
PHILLIPS       LGT SNOW  20  18  91 S6        29.74R
ANTIGO         CLOUDY    19  17  90 SE10      29.76S WCI   8
TOMAHAWK       CLOUDY    19  16  86 CALM      29.76R
MERRILL        CLOUDY    21  17  85 SE5       29.76S
$$

WIZ013-073-262300-
NORTHEAST WISCONSIN

CITY           SKY/WX    TMP DP  RH WIND       PRES   REMARKS
IRON MOUNTAIN  CLOUDY    22  16  78 SE9       29.80S
MARINETTE      CLOUDY    25  19  80 SE7       29.86S
OCONTO         CLOUDY    25  21  86 MISG      29.86S
$$

WIZ017-030-035>037-045-262300-
CENTRAL WISCONSIN

CITY           SKY/WX    TMP DP  RH WIND       PRES   REMARKS
MEDFORD        CLOUDY    20  19  93 SE3       29.74S FOG
WAUSAU         CLOUDY    21  17  84 SE7       29.76R
MOSINEE        LGT SNOW  21  19  93 SE6       29.77R
MARSHFIELD     CLOUDY    22  19  89 S9        29.76R
WISC RAPIDS    CLOUDY    22  19  89 SE7       29.80R
STEVENS POINT  CLOUDY    20  18  91 SE6       29.79S FOG
WAUPACA        LGT SNOW  26  22  85 SE5       29.82R
SHAWANO        FLURRIES  26  21  79 SE5       29.84R
CLINTONVILLE   FLURRIES  25  21  86 SE8       29.83R
$$

WIZ038-039-048-051-262300-
FOX VALLEY

CITY           SKY/WX    TMP DP  RH WIND       PRES   REMARKS
NWS GREEN BAY  LGT SNOW  26  21  81 S7        29.85S
APPLETON       LGT SNOW  25  19  80 SE8       29.83R
OSHKOSH        LGT SNOW  25  20  81 SE9       29.83R
FOND DU LAC    LGT SNOW  25  19  78 S9        29.83R
$$

WIZ022-050-052-262300-
EAST CENTRAL WISCONSIN

CITY           SKY/WX    TMP DP  RH WIND       PRES   REMARKS
STURGEON BAY   CLOUDY    25  21  86 SE8       29.88R
MANITOWOC      MIX PCPN  27  21  78 S10       29.86R
SHEBOYGAN      CLOUDY    26  18  71 S10       29.85R
$$

LMZ563-521-522-541>543-262300-
LAKESHORE

STATION/POSITION TIME  TEMP    WIND        PRES    VSBY  WAVE
                       AIR SEA DIR/SP/G                  HT/PER
                 (UTC) (F)     (DEG/KT/KT) (MB)    (MI)  (FT/S)
SHEBOYGAN LKSHOR 2200   26     190/ 12/ 14 1012.3R
KEWAUNEE LKSHORE 2200   27     180/ 12/ 15 1010.4S
NORTHPORT PIER   2200   25     150/ 12/ 16 1012.5S
CHAMBERS ISLAND  2200   25     120/  4/  8 1012.2R
MENOMINEE LKSHOR 2200   24     130/  5     1012.3R
$$


USA.gov is the U.S. government's official web portal to all federal, state and local government web resources and services.